FW3855 Weather Reports


Display with metric or nautical units.
time (UTC)temp
F
wind
direction
speed
MPH
gust
MPH
rain 1hr
in
rain 24hr
in
rain mn
in
humidity
%
barometer
mb
20191018205851 65 319 4.0 8.0 0.00 0.00 0.00 22 1013.0
20191018205346 65 310 4.0 8.0 0.00 0.00 0.00 22 1013.2
20191018204845 65 276 4.0 9.0 0.00 0.00 0.00 22 1013.0
20191018204346 65 284 4.0 14.0 0.00 0.00 0.00 22 1013.0
20191018203846 65 318 4.0 14.0 0.00 0.00 0.00 22 1013.0
20191018203343 65 289 3.0 10.0 0.00 0.00 0.00 22 1013.2
20191018202843 65 314 4.0 10.0 0.00 0.00 0.00 22 1013.2
20191018202341 64 318 5.0 11.0 0.00 0.00 0.00 22 1013.3
20191018201842 65 342 5.0 11.0 0.00 0.00 0.00 22 1013.2
20191018201340 64 317 4.0 10.0 0.00 0.00 0.00 23 1013.3
20191018200839 64 71 4.0 10.0 0.00 0.00 0.00 23 1013.3
20191018200343 64 38 5.0 10.0 0.00 0.00 0.00 23 1013.4
20191018195838 64 315 5.0 10.0 0.00 0.00 0.00 23 1013.5
20191018195341 64 41 5.0 12.0 0.00 0.00 0.00 23 1013.5
20191018194839 64 249 6.0 12.0 0.00 0.00 0.00 24 1013.5
20191018194338 64 319 5.0 11.0 0.00 0.00 0.00 23 1013.6
20191018193839 64 287 4.0 13.0 0.00 0.00 0.00 23 1013.5
20191018193338 64 326 4.0 13.0 0.00 0.00 0.00 24 1013.6
20191018192838 64 316 5.0 10.0 0.00 0.00 0.00 25 1013.6
20191018192337 64 335 5.0 12.0 0.00 0.00 0.00 25 1013.6
20191018191838 64 45 5.0 12.0 0.00 0.00 0.00 26 1013.6
20191018191336 63 314 5.0 12.0 0.00 0.00 0.00 25 1013.8
20191018190837 63 309 5.0 12.0 0.00 0.00 0.00 26 1014.0
20191018190339 63 286 5.0 9.0 0.00 0.00 0.00 26 1013.8
20191018185837 63 323 5.0 10.0 0.00 0.00 0.00 25 1014.0
20191018185337 63 319 5.0 10.0 0.00 0.00 0.00 25 1014.0
20191018184836 63 327 5.0 9.0 0.00 0.00 0.00 27 1014.0
20191018184337 63 310 5.0 13.0 0.00 0.00 0.00 27 1014.0
20191018183838 62 342 4.0 13.0 0.00 0.00 0.00 28 1014.1
20191018183336 62 298 4.0 9.0 0.00 0.00 0.00 28 1014.1
20191018182836 62 309 4.0 9.0 0.00 0.00 0.00 28 1014.1
20191018182335 62 290 4.0 11.0 0.00 0.00 0.00 29 1014.2
20191018181837 62 326 4.0 11.0 0.00 0.00 0.00 29 1014.1
20191018181335 62 17 4.0 9.0 0.00 0.00 0.00 29 1014.1
20191018180834 61 291 5.0 9.0 0.00 0.00 0.00 31 1014.2
20191018180336 61 275 5.0 13.0 0.00 0.00 0.00 32 1014.2
20191018175836 61 231 5.0 13.0 0.00 0.00 0.00 31 1014.2
20191018175336 61 307 4.0 12.0 0.00 0.00 0.00 32 1014.1
20191018174836 60 120 5.0 12.0 0.00 0.00 0.00 33 1014.0
20191018174332 60 259 5.0 10.0 0.00 0.00 0.00 33 1014.0
20191018173835 59 290 5.0 13.0 0.00 0.00 0.00 34 1014.0
20191018173333 59 279 5.0 13.0 0.00 0.00 0.00 35 1014.0
20191018172839 59 249 5.0 12.0 0.00 0.00 0.00 34 1013.8
20191018172337 60 259 5.0 11.0 0.00 0.00 0.00 34 1013.8
20191018171837 60 323 4.0 11.0 0.00 0.00 0.00 34 1013.7
20191018171336 60 285 4.0 10.0 0.00 0.00 0.00 34 1013.7
20191018170838 60 293 4.0 9.0 0.00 0.00 0.00 34 1013.5
20191018170334 60 338 4.0 11.0 0.00 0.00 0.00 34 1013.6
20191018165835 60 311 5.0 11.0 0.00 0.00 0.00 34 1013.6
20191018165333 60 321 4.0 13.0 0.00 0.00 0.00 33 1013.5
20191018164834 60 34 4.0 13.0 0.00 0.00 0.00 34 1013.4
20191018164330 60 266 4.0 11.0 0.00 0.00 0.00 34 1013.4
20191018163830 59 294 5.0 10.0 0.00 0.00 0.00 36 1013.3
20191018163332 59 296 5.0 12.0 0.00 0.00 0.00 36 1013.4
20191018162830 59 274 5.0 12.0 0.00 0.00 0.00 36 1013.4
20191018162330 59 348 4.0 8.0 0.00 0.00 0.00 34 1013.3
20191018161830 59 314 4.0 8.0 0.00 0.00 0.00 34 1013.3
20191018161332 59 311 5.0 11.0 0.00 0.00 0.00 35 1013.2
20191018160830 58 311 6.0 11.0 0.00 0.00 0.00 36 1013.0
20191018160332 58 314 6.0 11.0 0.00 0.00 0.00 37 1013.0
20191018155830 57 330 6.0 11.0 0.00 0.00 0.00 37 1013.0
20191018155330 57 245 5.0 10.0 0.00 0.00 0.00 37 1012.9
20191018154830 57 311 5.0 13.0 0.00 0.00 0.00 37 1012.9
20191018154331 57 290 4.0 13.0 0.00 0.00 0.00 37 1012.9
20191018153828 58 301 4.0 10.0 0.00 0.00 0.00 37 1012.7
20191018153329 57 316 4.0 10.0 0.00 0.00 0.00 37 1012.4
20191018152831 57 43 4.0 10.0 0.00 0.00 0.00 38 1012.5
20191018152328 56 330 5.0 11.0 0.00 0.00 0.00 38 1012.3
20191018151828 56 283 5.0 13.0 0.00 0.00 0.00 38 1012.3
20191018151328 56 353 5.0 13.0 0.00 0.00 0.00 38 1012.4
20191018150828 56 332 4.0 14.0 0.00 0.00 0.00 38 1012.3
20191018150327 56 294 3.0 14.0 0.00 0.00 0.00 38 1012.1
20191018145826 56 310 4.0 14.0 0.00 0.00 0.00 38 1012.0
20191018145326 56 232 5.0 14.0 0.00 0.00 0.00 39 1011.9
20191018144826 56 328 5.0 12.0 0.00 0.00 0.00 39 1011.8
20191018144328 55 11 5.0 16.0 0.00 0.00 0.00 39 1011.7
20191018143828 55 15 6.0 16.0 0.00 0.00 0.00 39 1011.6
20191018143326 55 306 5.0 13.0 0.00 0.00 0.00 39 1011.5
20191018142829 55 342 3.0 13.0 0.00 0.00 0.00 40 1011.3
20191018142327 54 278 4.0 13.0 0.00 0.00 0.00 40 1011.2
20191018141824 55 41 5.0 13.0 0.00 0.00 0.00 40 1011.2
20191018141325 55 316 4.0 13.0 0.00 0.00 0.00 40 1011.1
20191018140824 55 271 3.0 8.0 0.00 0.00 0.00 40 1011.1
20191018140326 55 308 4.0 10.0 0.00 0.00 0.00 40 1011.1
20191018135824 55 285 4.0 10.0 0.00 0.00 0.00 40 1011.0
20191018135324 55 30 3.0 8.0 0.00 0.00 0.00 39 1010.9
20191018134825 56 302 3.0 7.0 0.00 0.00 0.00 39 1010.9
20191018134324 56 72 3.0 9.0 0.00 0.00 0.00 37 1010.8
20191018133824 56 314 2.0 9.0 0.00 0.00 0.00 37 1010.7
20191018133325 56 295 2.0 5.0 0.00 0.00 0.00 37 1010.7
20191018132824 56 292 2.0 5.0 0.00 0.00 0.00 37 1010.5
20191018132323 56 268 2.0 7.0 0.00 0.00 0.00 36 1010.4
20191018131824 56 288 2.0 7.0 0.00 0.00 0.00 36 1010.3
20191018131323 56 295 2.0 5.0 0.00 0.00 0.00 36 1010.3
20191018130825 56 294 2.0 5.0 0.00 0.00 0.00 36 1010.2
20191018130326 57 297 3.0 7.0 0.00 0.00 0.00 36 1010.1
20191018125824 57 282 3.0 13.0 0.00 0.00 0.00 36 1010.0
20191018125327 57 313 3.0 13.0 0.00 0.00 0.00 36 1009.9
20191018124825 57 269 3.0 7.0 0.00 0.00 0.00 36 1009.9
20191018124324 56 309 2.0 7.0 0.00 0.00 0.00 36 1009.7
20191018123823 56 308 1.0 4.0 0.00 0.00 0.00 37 1009.7
20191018123325 56 303 1.0 4.0 0.00 0.00 0.00 37 1009.4
20191018122826 56 293 2.0 5.0 0.00 0.00 0.00 37 1009.4
20191018122323 56 316 2.0 5.0 0.00 0.00 0.00 36 1009.4
20191018121823 56 326 2.0 4.0 0.00 0.00 0.00 37 1009.3
20191018121327 56 295 1.0 4.0 0.00 0.00 0.00 37 1009.3
20191018120824 56 242 2.0 4.0 0.00 0.00 0.00 37 1009.3
20191018120324 56 274 2.0 4.0 0.00 0.00 0.00 37 1009.1
20191018115826 55 348 1.0 4.0 0.00 0.00 0.00 37 1009.1
20191018115325 55 293 1.0 4.0 0.00 0.00 0.00 38 1008.9
20191018114824 54 299 0.0 4.0 0.00 0.00 0.00 39 1008.9
20191018114326 54 251 0.0 1.0 0.00 0.00 0.00 39 1008.9
20191018113824 55 205 1.0 2.0 0.00 0.00 0.00 37 1008.8
20191018113323 55 249 1.0 4.0 0.00 0.00 0.00 37 1008.8
20191018112824 56 249 1.0 4.0 0.00 0.00 0.00 37 1008.9
20191018112322 56 295 1.0 3.0 0.00 0.00 0.00 37 1008.8
20191018111821 56 280 1.0 3.0 0.00 0.00 0.00 37 1008.7
20191018111323 56 290 1.0 4.0 0.00 0.00 0.00 37 1008.6
20191018110819 56 290 2.0 4.0 0.00 0.00 0.00 36 1008.6
20191018110320 57 236 2.0 5.0 0.00 0.00 0.00 36 1008.5
20191018105821 57 263 2.0 5.0 0.00 0.00 0.00 36 1008.3
20191018105319 57 266 2.0 4.0 0.00 0.00 0.00 36 1008.3
20191018104821 57 244 2.0 7.0 0.00 0.00 0.00 36 1008.3
20191018104319 57 290 3.0 10.0 0.00 0.00 0.00 36 1008.1
20191018103825 57 297 4.0 10.0 0.00 0.00 0.00 36 1008.0
20191018103329 57 235 3.0 6.0 0.00 0.00 0.00 36 1008.1
20191018102817 58 248 3.0 6.0 0.00 0.00 0.00 35 1008.0
20191018102322 58 243 4.0 8.0 0.00 0.00 0.00 35 1008.1
20191018101819 58 259 5.0 11.0 0.00 0.00 0.00 35 1008.0
20191018101322 58 281 5.0 11.0 0.00 0.00 0.00 35 1008.0
20191018100822 57 196 4.0 8.0 0.00 0.00 0.00 38 1007.9
20191018100321 57 178 4.0 8.0 0.00 0.00 0.00 38 1007.9
20191018095820 57 211 4.0 10.0 0.00 0.00 0.00 37 1007.9
20191018095321 57 203 4.0 10.0 0.00 0.00 0.00 38 1007.9
20191018094816 57 228 4.0 12.0 0.00 0.00 0.00 37 1007.9
20191018094317 58 217 5.0 12.0 0.00 0.00 0.00 37 1007.9
20191018093814 58 217 4.0 12.0 0.00 0.00 0.00 36 1007.8
20191018093316 58 236 4.0 9.0 0.00 0.00 0.00 36 1007.8
20191018092813 58 230 4.0 10.0 0.00 0.00 0.00 36 1007.7
20191018092313 58 248 4.0 10.0 0.00 0.00 0.00 35 1007.9
20191018091314 58 210 3.0 9.0 0.00 0.00 0.00 35 1007.7
20191018090814 58 259 3.0 8.0 0.00 0.00 0.00 35 1007.6
20191018090315 58 292 2.0 7.0 0.00 0.00 0.00 35 1007.5
20191018085816 58 249 2.0 5.0 0.00 0.00 0.00 35 1007.3
20191018085313 58 253 3.0 7.0 0.00 0.00 0.00 35 1007.2
20191018084811 59 242 3.0 7.0 0.00 0.00 0.00 34 1007.3
20191018084312 59 202 3.0 9.0 0.00 0.00 0.00 34 1007.3
20191018083811 59 168 5.0 11.0 0.00 0.00 0.00 34 1007.3
20191018083312 59 229 4.0 13.0 0.00 0.00 0.00 34 1007.2
20191018082814 59 204 3.0 13.0 0.00 0.00 0.00 34 1007.3
20191018082311 59 242 3.0 7.0 0.00 0.00 0.00 34 1007.1
20191018081811 59 231 3.0 7.0 0.00 0.00 0.00 34 1007.1
20191018081312 59 242 4.0 9.0 0.00 0.00 0.00 35 1007.0
20191018080812 59 222 3.0 9.0 0.00 0.00 0.00 35 1007.1
20191018080313 59 192 3.0 9.0 0.00 0.00 0.00 33 1007.3
20191018075810 60 226 4.0 10.0 0.00 0.00 0.00 32 1007.3
20191018075312 60 157 4.0 10.0 0.00 0.00 0.00 32 1007.3
20191018074809 59 248 4.0 8.0 0.00 0.00 0.00 31 1007.2
20191018074309 60 254 4.0 12.0 0.00 0.00 0.00 31 1007.2
20191018073811 60 195 4.0 12.0 0.00 0.00 0.00 30 1007.2
20191018073310 60 215 3.0 9.0 0.00 0.00 0.00 30 1007.1
20191018072812 60 205 3.0 10.0 0.00 0.00 0.00 30 1007.2
20191018072309 60 262 3.0 10.0 0.00 0.00 0.00 30 1007.2
20191018071812 61 293 4.0 11.0 0.00 0.00 0.00 29 1007.2
20191018071309 61 265 4.0 11.0 0.00 0.00 0.00 29 1007.1
20191018070809 61 229 2.0 10.0 0.00 0.00 0.00 29 1007.0
20191018070310 61 229 1.0 4.0 0.00 0.00 0.00 28 1007.0
20191018065809 61 283 3.0 13.0 0.00 0.00 0.00 28 1006.8
20191018065312 61 289 3.0 13.0 0.00 0.00 0.00 28 1006.8
20191018064811 61 223 3.0 7.0 0.00 0.00 0.00 28 1006.9
20191018064310 61 188 3.0 7.0 0.00 0.00 0.00 28 1006.8
20191018063817 60 7 2.0 5.0 0.00 0.00 0.00 28 1006.8
20191018063311 61 129 2.0 8.0 0.00 0.00 0.00 28 1006.7
20191018062807 61 33 3.0 9.0 0.00 0.00 0.00 28 1006.4
20191018062310 59 169 2.0 9.0 0.00 0.00 0.00 30 1006.5
20191018061807 59 145 1.0 3.0 0.00 0.00 0.00 27 1006.5
20191018061307 60 196 1.0 3.0 0.00 0.00 0.00 27 1006.4
20191018060807 61 202 2.0 7.0 0.00 0.00 0.00 26 1006.4
20191018060308 61 163 3.0 8.0 0.00 0.00 0.00 26 1006.2
20191018055805 61 191 4.0 12.0 0.00 0.00 0.00 26 1006.2
20191018055301 61 183 5.0 12.0 0.00 0.00 0.00 25 1006.1
20191018054801 62 193 5.0 11.0 0.00 0.00 0.00 25 1006.2
20191018054303 61 186 3.0 11.0 0.00 0.00 0.00 25 1006.1
20191018053801 61 149 3.0 12.0 0.00 0.00 0.00 25 1006.2
20191018053301 62 231 4.0 12.0 0.00 0.00 0.00 25 1006.2
20191018052802 62 201 4.0 10.0 0.00 0.00 0.00 25 1006.1
20191018052259 62 204 4.0 11.0 0.00 0.00 0.00 25 1006.1
20191018051759 62 188 3.0 11.0 0.00 0.00 0.00 24 1006.2
20191018051259 62 311 3.0 7.0 0.00 0.00 0.00 24 1006.1
20191018050801 62 180 3.0 7.0 0.00 0.00 0.00 24 1005.9
20191018050259 62 191 3.0 8.0 0.00 0.00 0.00 23 1005.9
20191018045801 62 236 3.0 8.0 0.00 0.00 0.00 23 1005.7
20191018045259 63 113 4.0 10.0 0.00 0.00 0.00 22 1005.5
20191018044759 63 150 4.0 10.0 0.00 0.00 0.00 22 1005.5
20191018044258 63 168 3.0 9.0 0.00 0.00 0.00 22 1005.4
20191018043800 63 133 3.0 10.0 0.00 0.00 0.00 22 1005.4
20191018043257 63 24 4.0 10.0 0.00 0.00 0.00 22 1005.4
20191018042757 63 162 4.0 10.0 0.00 0.00 0.00 21 1005.4
20191018042257 63 188 3.0 9.0 0.00 0.00 0.00 21 1005.5
20191018041759 63 241 3.0 9.0 0.00 0.00 0.00 21 1005.5
20191018041259 63 82 4.0 12.0 0.00 0.00 0.00 21 1005.5
20191018040758 64 192 4.0 12.0 0.00 0.00 0.00 21 1005.6
20191018040257 64 172 4.0 9.0 0.00 0.00 0.00 21 1005.6
20191018035755 64 141 4.0 14.0 0.00 0.00 0.00 21 1005.6
20191018035255 64 103 3.0 14.0 0.00 0.00 0.00 21 1005.6
20191018034757 64 168 4.0 12.0 0.00 0.00 0.00 21 1005.6
20191018034257 65 220 6.0 13.0 0.00 0.00 0.00 20 1005.6
20191018033755 65 160 5.0 13.0 0.00 0.00 0.00 20 1005.5
20191018033257 65 137 4.0 10.0 0.00 0.00 0.00 20 1005.6
20191018032757 65 172 3.0 10.0 0.00 0.00 0.00 19 1005.6
20191018032255 65 170 3.0 7.0 0.00 0.00 0.00 19 1005.7
20191018031755 65 176 3.0 8.0 0.00 0.00 0.00 19 1005.7
20191018031255 65 139 3.0 8.0 0.00 0.00 0.00 19 1005.9
20191018030755 65 182 3.0 7.0 0.00 0.00 0.00 20 1005.9
20191018030257 65 179 4.0 7.0 0.00 0.00 0.00 20 1005.7
20191018025755 65 157 2.0 7.0 0.00 0.00 0.00 22 1005.6
20191018025257 65 127 1.0 5.0 0.00 0.00 0.00 22 1005.5
20191018024757 65 157 1.0 5.0 0.00 0.00 0.00 23 1005.5
20191018024257 66 185 2.0 8.0 0.00 0.00 0.00 23 1005.5
20191018023755 66 105 4.0 14.0 0.00 0.00 0.00 23 1005.4
20191018023253 66 184 4.0 14.0 0.00 0.00 0.00 24 1005.3
20191018022753 66 203 4.0 7.0 0.00 0.00 0.00 24 1005.5
20191018022252 67 159 4.0 9.0 0.00 0.00 0.00 25 1005.6
20191018021754 67 193 4.0 9.0 0.00 0.00 0.00 25 1005.9
20191018021253 67 200 4.0 9.0 0.00 0.00 0.00 25 1005.9
20191018020756 67 217 4.0 9.0 0.00 0.00 0.00 25 1006.0
20191018020253 67 221 4.0 10.0 0.00 0.00 0.00 25 1006.0
20191018015753 67 193 4.0 10.0 0.00 0.00 0.00 25 1006.1
20191018015254 67 193 4.0 10.0 0.00 0.00 0.00 25 1006.1
20191018014755 67 188 4.0 7.0 0.00 0.00 0.00 25 1006.1
20191018014253 68 143 3.0 7.0 0.00 0.00 0.00 24 1006.1
20191018013754 68 198 4.0 12.0 0.00 0.00 0.00 24 1006.1
20191018013258 68 79 5.0 12.0 0.00 0.00 0.00 23 1006.0
20191018012757 68 210 5.0 13.0 0.00 0.00 0.00 23 1005.9
20191018012258 68 182 5.0 13.0 0.00 0.00 0.00 22 1005.9
20191018011756 69 241 3.0 11.0 0.00 0.00 0.00 21 1005.9
20191018011253 69 205 3.0 8.0 0.00 0.00 0.00 20 1006.0
20191018010751 69 153 4.0 14.0 0.00 0.00 0.00 19 1006.0
20191018010251 69 221 5.0 14.0 0.00 0.00 0.00 19 1005.9
20191018005751 70 212 6.0 16.0 0.00 0.00 0.00 19 1006.0
20191018005248 70 188 7.0 16.0 0.00 0.00 0.00 19 1006.0
20191018004749 70 203 7.0 14.0 0.00 0.00 0.00 18 1006.1
20191018004246 70 248 7.0 15.0 0.00 0.00 0.00 17 1006.1
20191018003747 70 163 6.0 15.0 0.00 0.00 0.00 17 1006.1
20191018003246 71 163 6.0 18.0 0.00 0.00 0.00 17 1006.1
20191018002743 71 238 7.0 18.0 0.00 0.00 0.00 17 1006.2
20191018002245 71 198 8.0 18.0 0.00 0.00 0.00 17 1006.3
20191018001742 72 198 7.0 17.0 0.00 0.00 0.00 18 1006.3
20191018001245 73 261 6.0 16.0 0.00 0.00 0.00 17 1006.3
20191018000741 74 165 6.0 16.0 0.00 0.00 0.00 16 1006.1
20191018000244 74 164 5.0 15.0 0.00 0.00 0.00 16 1006.2
20191017235743 75 140 4.0 15.0 0.00 0.00 0.00 16 1006.2
20191017235239 75 252 5.0 14.0 0.00 0.00 0.00 16 1006.1
20191017234742 75 219 6.0 14.0 0.00 0.00 0.00 16 1006.2
20191017234243 75 212 6.0 14.0 0.00 0.00 0.00 16 1006.2
20191017233737 75 144 7.0 16.0 0.00 0.00 0.00 16 1006.2
20191017233239 76 166 6.0 16.0 0.00 0.00 0.00 15 1006.1
20191017232735 76 227 6.0 15.0 0.00 0.00 0.00 16 1006.1
20191017232236 76 136 6.0 17.0 0.00 0.00 0.00 16 1006.0
20191017231736 76 253 7.0 18.0 0.00 0.00 0.00 16 1006.1
20191017231233 76 285 8.0 18.0 0.00 0.00 0.00 16 1006.1
20191017230733 76 195 7.0 17.0 0.00 0.00 0.00 16 1006.2
20191017230235 76 245 7.0 21.0 0.00 0.00 0.00 17 1006.0
20191017225732 76 221 8.0 21.0 0.00 0.00 0.00 17 1006.2
20191017225234 77 198 6.0 20.0 0.00 0.00 0.00 17 1006.1
20191017224731 77 190 6.0 15.0 0.00 0.00 0.00 17 1006.2
20191017224230 77 162 7.0 15.0 0.00 0.00 0.00 17 1006.2
20191017223731 77 172 8.0 18.0 0.00 0.00 0.00 18 1006.2
20191017223238 77 323 8.0 18.0 0.00 0.00 0.00 18 1006.4
20191017222738 77 257 7.0 14.0 0.00 0.00 0.00 17 1006.3
20191017222238 77 210 7.0 17.0 0.00 0.00 0.00 17 1006.3
20191017221734 77 186 8.0 23.0 0.00 0.00 0.00 17 1006.3
20191017221233 77 282 7.0 23.0 0.00 0.00 0.00 16 1006.3
20191017220731 77 236 7.0 23.0 0.00 0.00 0.00 16 1006.3
20191017220232 78 146 7.0 23.0 0.00 0.00 0.00 16 1006.7
20191017215729 78 165 7.0 14.0 0.00 0.00 0.00 17 1006.7
20191017215230 77 160 9.0 24.0 0.00 0.00 0.00 17 1006.8
20191017214729 78 198 8.0 24.0 0.00 0.00 0.00 17 1006.9
20191017214233 78 175 6.0 19.0 0.00 0.00 0.00 16 1007.0
20191017213730 78 141 5.0 16.0 0.00 0.00 0.00 16 1007.1
20191017213231 78 264 7.0 17.0 0.00 0.00 0.00 17 1007.1
20191017212729 78 151 6.0 17.0 0.00 0.00 0.00 16 1007.1
20191017212231 79 140 5.0 16.0 0.00 0.00 0.00 16 1007.1
20191017211729 78 181 6.0 19.0 0.00 0.00 0.00 16 1007.2
20191017211230 78 317 6.0 19.0 0.00 0.00 0.00 16 1007.3
20191017210728 78 206 8.0 21.0 0.00 0.00 0.00 15 1007.6
20191017210228 78 295 8.0 21.0 0.00 0.00 0.00 15 1007.6